Retour au catalogue

STARLINK-6373

ActifCommunicationsVLEO
NORAD 57345·PAYLOAD·🇺🇸 United States

Lancé Jul 16, 2023 depuis Cape Canaveral Space Force Station

Loading…

Prochains Passages (prochaines 24 heures)

TLE

FraisSource: CelesTrak SupGP

Époque: Sep 14, 2026, 21:35 UTC

1 57345C 23099T   26257.89979167  .00025000  00000+0  90564-3 0  2575
2 57345  43.0026 267.1640 0001983 269.3747 127.3920 15.27560045    16

Suivez STARLINK-6373 en temps réel avec AllMySat

Download on the App Store